Regional Weather Roundup
Issued by NWS

Home | Current Version | Previous Version | Graphics & Text | Print | Product List | Glossary On
Versions: 1 2 3 4 5 6 7 8 9 10 11 12 13 14 15 16 17 18 19 20 21 22 23 24 25 26 27 28 29 30 31 32 33 34 35 36 37 38 39 40 41 42 43 44 45 46 47 48 49 50
000
ASUS43 KLMK 301602
RWRKY
KENTUCKY REGIONAL WEATHER ROUNDUP
NATIONAL WEATHER SERVICE LOUISVILLE KY
1200 PM EDT TUE JUN 30 2015

NOTE "FAIR" INDICATES FEW OR NO CLOUDS BELOW 12,000 FEET
WITH NO SIGNIFICANT WEATHER AND/OR OBSTRUCTIONS TO VISIBILITY.

KYZ001>023-026-027-061>063-070>075-301700-
WESTERN AND SOUTH CENTRAL KENTUCKY

CITY           SKY/WX    TMP DP  RH WIND       PRES   REMARKS
PADUCAH        SUNNY     81  68  64 W7        29.92S
HENDERSON      CLOUDY    81  68  65 SW6       29.89S
OWENSBORO      SUNNY     82  70  67 W7        29.91S
HOPKINSVILLE   MOSUNNY   81  71  71 W8        29.94R
BOWLING GREEN  SUNNY     80  70  71 VRB7      29.93S
GLASGOW        NOT AVBL
$$

KYZ024-025-028>034-038-045-046-053-301700-
NORTH CENTRAL KENTUCKY

CITY           SKY/WX    TMP DP  RH WIND       PRES   REMARKS
LOUISVILLE/SDF CLOUDY    80  64  58 SW14      29.90R
LOUISVILLE/LOU MOSUNNY   78  65  63 W10       29.91R
FORT KNOX      MOSUNNY   80  69  67 SW9       29.91R
$$

KYZ035>037-039>044-047>052-055>060-089>105-301700-
NORTHEAST KENTUCKY

CITY           SKY/WX    TMP DP  RH WIND       PRES   REMARKS
LEXINGTON      MOSUNNY   76  68  76 SW9       29.93S
COVINGTON      MOSUNNY   76  66  71 SW14G21   29.88F
FRANKFORT      MOSUNNY   76  67  73 SW12      29.91F
$$

KYZ054-064>069-076>088-106>120-301700-
SOUTHEAST KENTUCKY

CITY           SKY/WX    TMP DP  RH WIND       PRES   REMARKS
JACKSON        PTSUNNY   76  67  73 VRB5      29.95F
LONDON         MOSUNNY   78  65  63 SW7       29.95F
SOMERSET       NOT AVBL
MIDDLESBORO    NOT AVBL
MONTICELLO     SUNNY     81  72  74 S9        29.98S
$$




USA.gov is the U.S. government's official web portal to all federal, state and local government web resources and services.